User: anonymous   Login
Location: Unspecified
(0.0000°N, 0.0000°E)
Time: 13:23:16
(UTC+00:00)
Language:

SIRIUS-2 - Orbit

View from above orbital plane
View from above orbital plane
View from above satellite
View from above satellite

Ground track
Ground track

The orbit data is extracted from the following two-line orbital elements,

1 26483U 00051A   18293.36990750  .00000067  00000-0  00000+0 0  9993
2 26483  64.9582  96.4779 0148235 255.5698  51.7727  1.64982103 71678
Epoch (UTC): 20 October 2018 08:52:40
Eccentricity: 0.0148235
inclination: 64.9582°
perigee height: 23427 km
apogee height: 24323 km
right ascension of ascending node: 96.4779°
argument of perigee: 255.5698°
revolutions per day: 1.64982103
mean anomaly at epoch: 51.7727°
orbit number at epoch: 7167

The dashed part of the orbit path shows where the satellite is in the earth's shadow,  

DLR